Location: Brede
(50.9167°N, 0.6000°E)
Time: 03:38:05
(UTC+00:00)

Cosmos 1544 Rocket - Pass Details

Date: 08 August 2020
Orbit: 603 x 632 km, 82.5° (Epoch: 27 September)

Event Time Altitude Azimuth Distance (km) Brightness Sun altitude
Exits shadow 02:37:07 16° 174° (S) 1,675 5.4 -15.1°
Maximum altitude 02:40:40 62° 96° (E) 714 4.0 -14.7°
Drops below altitude 10° 02:45:06 10° 16° (NNE) 2,026 7.3 -14.3°
Sets 02:47:22 0° 13° (NNE) 2,938 8.2 -14.1°
